Regional Weather Roundup
Issued by NWS

Home | Current Version | Previous Version | Graphics & Text | Print | Product List | Glossary On
Versions: 1 2 3 4 5 6 7 8 9 10 11 12 13 14 15 16 17 18 19 20 21 22 23 24 25 26 27 28 29 30 31 32 33 34 35 36 37 38 39 40 41 42 43 44 45 46 47 48 49 50
000
ASUS43 KMKX 201011
RWRWI

WISCONSIN REGIONAL WEATHER ROUNDUP
NATIONAL WEATHER SERVICE MILWAUKEE/SULLIVAN WI
500 AM CDT SUN APR 20 2014

NOTE: "FAIR" INDICATES FEW OR NO CLOUDS BELOW 12,000 FEET WITH NO
SIGNIFICANT WEATHER AND/OR OBSTRUCTIONS TO VISIBILITY.

WIZ001-002-006>008-014>016-023>028-201100-
NORTHWEST WISCONSIN

CITY           SKY/WX    TMP DP  RH WIND       PRES   REMARKS
SUPERIOR ARPT  CLEAR     26  26  98 CALM      30.04S FOG
ASHLAND        CLEAR     36  36 100 W5        30.02S WCI  32
HAYWARD        PTCLDY    34  32  92 CALM      30.03S
SIREN          MOCLDY    32  32  99 CALM      30.03R
RICE LAKE      FOG       45  44  96 CALM      30.04S VSB<1/4
LADYSMITH      LGT RAIN  48  47  93 SE3       30.04S
EAU CLAIRE     CLOUDY    53  47  79 S3        30.02S
MENOMONIE      RAIN      50  47  87 CALM      30.03S
NEW RICHMOND   FOG       50  50 100 CALM      30.02S VSB 1/4
OSCEOLA        FOG       45  45 100 CALM      30.04S VSB<1/4
$$

WIZ003>005-009-010-017-018-201100-
NORTH CENTRAL WISCONSIN

CITY           SKY/WX    TMP DP  RH WIND       PRES   REMARKS
WOODRUFF       CLOUDY    46  39  78 S5        30.04F
RHINELANDER    CLOUDY    46  38  73 S7        30.06F
EAGLE RIVER    CLOUDY    43  39  84 S5        30.05S
LAND O LAKES   CLOUDY    45  37  73 S3        30.06S
PHILLIPS       CLOUDY    47  43  88 CALM      30.03F
TOMAHAWK       CLOUDY    44  40  86 CALM      30.06F
MEDFORD        CLOUDY    50  42  73 S7        30.06S
MERRILL        RAIN      48  43  81 SE3       30.08S
$$

WIZ029-030-035-036-043>047-201100-
CENTRAL WISCONSIN

CITY           SKY/WX    TMP DP  RH WIND       PRES   REMARKS
WAUSAU         LGT RAIN  50  41  71 S8        30.08R
MOSINEE        RAIN      48  43  81 S9        30.11R
MARSHFIELD     LGT RAIN  51  44  77 SE9       30.07S
STEVENS POINT  CLOUDY    52  37  54 S6        30.10S
WAUPACA        CLOUDY    55  37  50 S5        30.12S
WAUTOMA        CLOUDY    56  39  52 S10       30.11F
WISC RAPIDS    CLOUDY    56  35  45 S8        30.10R
CAMP DOUGLAS   CLOUDY    60  38  43 S9        30.08S
$$

WIZ011>013-019>022-031-037>040-048>050-201100-
NORTHEAST WISCONSIN

CITY           SKY/WX    TMP DP  RH WIND       PRES   REMARKS
ANTIGO         CLOUDY    44  40  88 S6        30.10R
STURGEON BAY   CLOUDY    45  34  65 S16       30.17S
GREEN BAY      CLOUDY    50  40  68 S8        30.15R
MANITOWOC      CLOUDY    44  34  67 S10       30.19R
APPLETON       LGT RAIN  50  41  71 S9        30.14S
CLINTONVILLE   CLOUDY    52  37  58 S7        30.11F
OSHKOSH        CLOUDY    51  39  63 S17       30.13S
$$

WIZ032>034-041-042-053>061-201100-
SOUTHWEST WISCONSIN

CITY           SKY/WX    TMP DP  RH WIND       PRES   REMARKS
LA CROSSE      CLOUDY    62  38  40 S13       30.05S
SPARTA         CLOUDY    62  35  36 SW5       30.08S
VIROQUA        CLOUDY    58  39  48 S12       30.09S
BOSCOBEL       CLOUDY    61  39  44 SW3       30.11R
PRAIRIE DU CHI CLOUDY    63  38  39 S10G17    30.09S
PLATTEVILLE    MOCLDY    56  38  50 S12       30.14S
$$

WIZ056-057-062-063-064-067-068-201100-
SOUTH CENTRAL WISCONSIN

CITY           SKY/WX    TMP DP  RH WIND       PRES   REMARKS
BARABOO/DELLS  CLOUDY    55  36  50 S6        30.12R
LONE ROCK      CLOUDY    59  38  45 S6        30.12R
WATERTOWN      MOCLDY    50  38  62 S7        30.15S
MADISON        MOCLDY    54  38  54 S10       30.14S
MIDDLETON      PTSUNNY   55  36  49 S13       30.14R
MONROE         MOCLDY    51  38  60 S16       30.15S
JANESVILLE     PTCLDY    52  34  50 S13       30.17S
$$

WIZ051-052-058>065-066-070>072-201100-
SOUTHEAST WISCONSIN

CITY           SKY/WX    TMP DP  RH WIND       PRES   REMARKS
MILWAUKEE      PTCLDY    46  31  55 S7        30.19F
WAUKESHA       PTCLDY    45  34  65 S8        30.18S
MILWAUKEE/TIMM PTCLDY    46  32  57 S7        30.19S
RACINE         CLEAR     45  32  60 S10       30.21S
BURLINGTON     CLEAR     43  36  76 S7        30.18S
KENOSHA        CLEAR     45  34  65 S8        30.18F
FOND DU LAC    CLOUDY    53  38  56 S9        30.14R
SHEBOYGAN      CLOUDY    45  34  65 S12       30.18R
WEST BEND      CLOUDY    46  32  57 S8        30.17S
JUNEAU         CLOUDY    50  34  54 S10       30.16S
$$

LSZ147-162-201100-
LAKE SUPERIOR

STATION/POSITION TIME  TEMP    WIND        PRES    WAVE
                       AIR SEA DIR/SP/G            HT/PER
                 (UTC) (F)     (DEG/KT/KT) (MB)    (FT/S)
DEVILS ISLAND    1000   32     260/  8/  9 1017.7R
PORT WING        0940   28     280/  1/  3 1017.6R
SAXON HARBOR     0900             CALM     1015.9
$$

LMZ867-665-643>646-201100-
LAKE MICHIGAN

STATION/POSITION TIME  TEMP    WIND        PRES    WAVE
                       AIR SEA DIR/SP/G            HT/PER
                 (UTC) (F)     (DEG/KT/KT) (MB)    (FT/S)
NORTHPORT PIER   0900   41     160/ 10/ 17 1021.3F
SISTER BAY       0909   41     180/ 20/ 25   N/A
KEWAUNEE LAKESHO 0900   44     180/ 19/ 23 1022.2F
SHEBOYGAN LAKESH 1000   40     180/ 13/ 16 1022.9R
PORT WASHINGTON  0900   41     180/  6/ 10 1022.7
MILWAUKEE LAKESH 0900   43     160/ 11/ 12   N/A
KENOSHA   LAKESH 1000   43     180/ 14/ 19   N/A
$$

TC  - TEMPERATURE IN CELSIUS
VSB - VISIBILITY IN STATUTE MILES
WCI - WIND CHILL INDEX
HX  - HEAT INDEX




USA.gov is the U.S. government's official web portal to all federal, state and local government web resources and services.